Tracking 30160 objects as of 13-Feb-2025
HD Live streaming from Space Station
objects crossing your sky now

STARLINK-32596

Track STARLINK-32596 now!
10-day predictions
STARLINK-32596 is classified as:


NORAD ID: 62316
Int'l Code: 2024-239R
Perigee: 453.7 km
Apogee: 455.1 km
Inclination: 53.2 °
Period: 93.5 minutes
Semi major axis: 6825 km
RCS: Unknown
Launch date: December 13, 2024
Source: United States (US)
Launch site: AIR FORCE WESTERN TEST RANGE (AFWTR)
Your satellite tracking list
Your tracking list is empty




NASA's NSSDC Master Catalog

Two Line Element Set (TLE):
1 62316U 24239R   25044.61043957  .00002007  00000-0  60175-4 0  9990
2 62316  53.1579 204.7403 0001041  80.2124 279.8999 15.39600330  9768
Source of the keplerian elements: AFSPC